TimeCDT,TemperatureF,Dew PointF,Humidity,Sea Level PressureIn,VisibilityMPH,Wind Direction,Wind SpeedMPH,Gust SpeedMPH,PrecipitationIn,Events,Conditions,WindDirDegrees,DateUTC
12:52 AM,36.0,27.0,70,30.35,10.0,NNW,4.6,-,N/A,,Partly Cloudy,330,2012-10-27 05:52:00
1:52 AM,35.1,26.1,70,30.34,10.0,NNW,4.6,-,N/A,,Partly Cloudy,330,2012-10-27 06:52:00
2:52 AM,35.1,26.1,70,30.33,10.0,NW,4.6,-,N/A,,Clear,310,2012-10-27 07:52:00
3:52 AM,33.1,25.0,72,30.33,10.0,NW,3.5,-,N/A,,Partly Cloudy,320,2012-10-27 08:52:00
4:52 AM,33.1,25.0,72,30.33,10.0,WNW,6.9,-,N/A,,Partly Cloudy,300,2012-10-27 09:52:00
5:52 AM,32.0,24.1,73,30.34,10.0,NW,4.6,-,N/A,,Partly Cloudy,320,2012-10-27 10:52:00
6:52 AM,33.1,23.0,66,30.35,10.0,NW,4.6,-,N/A,,Scattered Clouds,320,2012-10-27 11:52:00
7:52 AM,33.1,23.0,66,30.36,10.0,NW,4.6,-,N/A,,Scattered Clouds,310,2012-10-27 12:52:00
8:52 AM,35.1,24.1,64,30.37,10.0,NNW,8.1,-,N/A,,Scattered Clouds,340,2012-10-27 13:52:00
10:52 AM,41.0,24.1,51,30.35,10.0,NNW,9.2,-,N/A,,Partly Cloudy,340,2012-10-27 15:52:00
11:52 AM,42.1,24.1,49,30.34,10.0,NNW,9.2,17.3,N/A,,Partly Cloudy,330,2012-10-27 16:52:00
12:52 PM,43.0,25.0,49,30.32,10.0,NNE,10.4,-,N/A,,Partly Cloudy,30,2012-10-27 17:52:00
1:52 PM,43.0,25.0,49,30.31,10.0,NE,9.2,-,N/A,,Partly Cloudy,50,2012-10-27 18:52:00
2:52 PM,44.1,26.1,49,30.31,10.0,NE,9.2,-,N/A,,Scattered Clouds,40,2012-10-27 19:52:00
3:52 PM,44.1,26.1,49,30.30,10.0,NE,9.2,-,N/A,,Scattered Clouds,40,2012-10-27 20:52:00
4:52 PM,43.0,21.9,43,30.30,10.0,North,6.9,-,N/A,,Scattered Clouds,360,2012-10-27 21:52:00
5:52 PM,39.9,21.0,47,30.31,10.0,North,6.9,-,N/A,,Scattered Clouds,360,2012-10-27 22:52:00
6:52 PM,39.9,21.0,47,30.32,10.0,North,5.8,-,N/A,,Scattered Clouds,350,2012-10-27 23:52:00
7:52 PM,39.0,21.9,50,30.32,10.0,North,8.1,-,N/A,,Scattered Clouds,350,2012-10-28 00:52:00
8:52 PM,37.9,23.0,55,30.32,10.0,North,5.8,-,N/A,,Scattered Clouds,350,2012-10-28 01:52:00
9:52 PM,39.0,24.1,55,30.32,10.0,North,5.8,-,N/A,,Mostly Cloudy,350,2012-10-28 02:52:00
10:52 PM,37.0,23.0,57,30.33,10.0,NNW,4.6,-,N/A,,Mostly Cloudy,340,2012-10-28 03:52:00
11:52 PM,37.9,24.1,57,30.32,10.0,NNW,5.8,-,N/A,,Mostly Cloudy,330,2012-10-28 04:52:00